This demonstration page uses our WeatherBlox Daily Observations layout. Learn more.

Left ArrowRight Arrow

Hourly Observations for July 21, 2015

Temp ( °F °C ) Dew Point ( °F °C ) Humidity (%) Winds ( mph kmh ) Pressure ( in mb ) Visibility ( mi km ) Precip ( " mm )
12:51 am 00:51 Clear 81 27.2 54 12.2 39 39 NW 13 20 29.78 1009 10 16.0934 N/A
1:51 am 01:51 Clear 78 25.6 55 12.8 45 45 NNW 8 13 29.78 1009 10 16.0934 N/A
2:51 am 02:51 Clear 75 23.9 55 12.8 50 50 NNW 8 13 29.79 1009 10 16.0934 N/A
3:51 am 03:51 Clear 77 25 54 12.2 45 45 WNW 3 6 29.79 1009 10 16.0934 N/A
4:51 am 04:51 Clear 71 21.7 56 13.3 59 59 SSE 6 9 29.81 1010 10 16.0934 N/A
5:51 am 05:51 Sunny 70 21.1 57 13.9 64 64 E 3 6 29.82 1010 10 16.0934 N/A
6:51 am 06:51 Sunny 75 23.9 55 12.8 50 50 SSE 6 9 29.83 1010 10 16.0934 N/A
7:51 am 07:51 Sunny 82 27.8 66 18.9 58 58 S 3 6 29.65 1004 10 16.0934 N/A
8:51 am 08:51 Sunny 83 28.3 56 13.3 40 40 N N/A 29.82 1010 10 16.0934 N/A
9:51 am 09:51 Sunny 89 31.7 56 13.3 33 33 VRB 3 6 29.8 1009 10 16.0934 N/A
10:51 am 10:51 Sunny 91 32.8 55 12.8 30 30 VRB 5 7 29.8 1009 10 16.0934 N/A
11:51 am 11:51 Sunny 93 33.9 53 11.7 26 26 VRB 6 9 29.77 1008 10 16.0934 N/A
12:51 pm 12:51 Sunny 97 36.1 51 10.6 21 21 WNW 12 19 29.75 1007 10 16.0934 N/A
1:51 pm 13:51 Sunny 97 36.1 50 10 20 20 N N/A 29.72 1007 10 16.0934 N/A
2:51 pm 14:51 Mostly Sunny 75 24.1 73 23 94 94 undefined N/A 29.92 1013 10 16.0934 N/A
3:51 pm 15:51 Sunny 100 37.8 51 10.6 19 19 NW 18 30 29.65 1004 10 16.0934 N/A
4:51 pm 16:51 Sunny 99 37.2 47 8.3 17 17 NNW 17 28 29.65 1004 10 16.0934 N/A
5:51 pm 17:51 Sunny 98 36.7 44 6.7 16 16 NNW 14 22 29.64 1004 10 16.0934 N/A
6:51 pm 18:51 Sunny 96 35.6 46 7.8 18 18 NW 16 26 29.64 1004 10 16.0934 N/A
7:51 pm 19:51 Clear 92 33.3 50 10 24 24 WNW 13 20 29.67 1005 10 16.0934 N/A
8:51 pm 20:51 Clear 87 30.6 50 10 28 28 NW 10 17 29.7 1006 10 16.0934 N/A
9:51 pm 21:51 Clear 86 30 47 8.3 26 26 NW 12 19 29.7 1006 10 16.0934 N/A
10:51 pm 22:51 Clear 85 29.4 46 7.8 26 26 WNW 12 19 29.71 1006 10 16.0934 N/A
11:51 pm 23:51 Clear 82 27.8 46 7.8 28 28 WNW 9 15 29.72 1006 10 16.0934 N/A

Powered by AerisWeather